Location: ????
(30.1475°N, 31.1342°E)
Time: 01:25:59
(UTC+00:00)

ARIANE 5 R/B - Pass Details

Date: 04 April 2023
Orbit: 748 x 794 km, 98.8° (Epoch: 29 May)

Event Time Altitude Azimuth Distance (km) Brightness Sun altitude
Rises 02:40:24 0° 2° (N) 3,288 6.0 -13.9°
Reaches altitude 10° 02:42:52 10° 354° (N) 2,360 5.1 -13.3°
Maximum altitude 02:47:38 37° 288° (WNW) 1,208 3.1 -12.3°
Drops below altitude 10° 02:52:24 10° 222° (SW) 2,354 4.5 -11.3°
Enters shadow 02:52:52 - 220° (SW) 2,529 4.7 -11.2°
